Погода Жосалы

Погода Жосалы : погода сейчас, прогноз погоды и архив. Всё, что Вы хотите узнать о погоде Жосалы!

Хотите узнать прогноз погоды Жосалы? Тогда Вам сюда: Погода Жосалы

Поиск расширенной информации на нашем сайте:

Другие новости

Новости СМИ2

Главная страница сайта

Новости сайта

03.07.2017

Напоминаем, что на нашем специализированном сайте Метеоцентр.Азия вы можете получить высокодетализированные автоматические прогнозы погоды по пунктам России, СНГ и мира в авиационном формате (включающие направление и скорость ветра, видимость, явления погоды, количество и форму облачности, нижнюю и верхнюю границу облачности).


Погода Жосалы - сегодня

Время (UTC), дата Ветер
(°,м/с) 
Видим.   Явления Облачность Т
(°С)
Тd
(°С)
f(%) Тe
(°С)
Pmin
(гПа)
dP
(гПа)
Po
(мм)
O2
(г/м3)
Тmin Tmax R s Состояние
почвы
09 17.02.18 050 (СВ) 20000 м    ясно 
-12 -15.5 75 -15  1042.5  -1.1  771  327           
12 17.02.18 010 (С) 20000 м    ясно 
-11.2 -14.7 75 -14  1041.8  -0.7  771  325           
15 17.02.18 020 (С) н/о    ясно 
-17.7 -20.3 80 -26  1041.8  -0.3  771  334    -10.6       
18 17.02.18 030 (СВ) н/о    ясно 
-18 -20.6 80 -26  1041.2  -0.5  770  334    -10.6       
21 17.02.18 040 (СВ) н/о    ясно 
-19 -21.6 80 -25  1040.5  -0.8  770  335           
00 18.02.18 030 (СВ) н/о    ясно 
-20.2 -22.8 80 -29  1040  -0.7  769  336           
03 18.02.18 040 (СВ) 20000 м    ясно 
-20.7 -23.2 80 -30  1039.8  -0.2  769  337  -20.7      равномерный
мокрый или
старый снег
100% 
06 18.02.18 040 (СВ) 20000 м    3/0 верхняя 
[Ci fib]
-16 -19.4 75 -24  1039.7  0.3  769  331  -20.7         
09 18.02.18 050 (СВ) 10  20000 м    ясно 
-10.2 -14.6 70 -17  1038.9  -0.6  769  323           
12 18.02.18 040 (СВ) 11  20000 м    ясно 
-9.4 -13.4 73 -17  1037.6  -1.2  768  322           
15 18.02.18 050 (СВ) н/о    ясно 
-14 -16.7 80 -21  1037.3  -0.5  768  327    -9.2       
18 18.02.18 060 (СВ) 12-15{15}  н/о    ясно 
-14.5 -17.9 75 -24  1036.3  -1.1  767  328    -9.2       
21 18.02.18 060 (СВ) 12-15{15}  н/о    ясно 
-15.2 -18.6 75 -24  1035.4  -0.9  766  328           
00 19.02.18 050 (СВ) 15-20{20}  н/о    ясно 
-15.7 -19.1 75 -26  1033.7  -1.7  765  328           
03 19.02.18 060 (СВ) 15-20{20}  20000 м    6/0 верхняя 
[Ci sp]
-14.1 -17.6 75 -24  1032.2  -1.3  764  326        равномерный
мокрый или
старый снег
100% 
06 19.02.18 070 (В) 16-21{21}  20000 м    6/0 верхняя 
[Ci sp]
-10.4 -14 75 -20  1031.8  -0.3  764  321  -15.7         
09 19.02.18 050 (СВ) 18-23{23}  20000 м    4/0 верхняя 
[Ci sp]
-5 -9.5 71 -13  1029.3  -2.2  762  314           
12 19.02.18 050 (СВ) 16-22{23}  20000 м    4/0 верхняя 
[Ci sp]
-2.9 -7.1 73 -10  1027.4  -1.8  761  311           
18 19.02.18 040 (СВ) 18-24{24}  н/о    4/0 верхняя 
[Ci sp]
-5.7 -9.1 77 -14  1025.1  -1.7  759  313    -2       
21 19.02.18 070 (В) 15-20{24}  н/о    ясно 
-6.9 -10.2 77 -15  1023.8  -1.4  758  314           
00 20.02.18 060 (СВ) 13-18{20}  н/о    6/0 средняя, верхняя 
[Ac trans|Ci sp]
-8 -11.2 78 -16  1021.5  -2.3  756  315           
03 20.02.18 240 (ЮЗ) н/о  слаб. снег  10/10 300 м 
[Ns]
-7.5 -8.4 93 -9  1031.5  1.5  764  317  -9.8      12  равномерный
сухой снег
100% 
06 20.02.18 280 (З) 20000 м  {снег}  8/0 средняя 
[Ac trans]
-5.1 -7.2 85 -5  1024.7  1.2  759  312  -7.4       
09 20.02.18 100 (В) 6{18}  20000 м    10/10 600 м 
[Sc]
-3.4 -7.7 72 -8  1017.9  -0.7  754  308           
12 20.02.18 080 (В) 20000 м  {дождь}  10/10 600 м 
[Sc]
-2 -5.9 75 -3  1016.6  -1.2  753  306           
Время (UTC), дата Ветер
(°,м/с) 
Видим.   Явления Облачность Т
(°С)
Тd
(°С)
f(%) Тe
(°С)
Pmin
(гПа)
dP
(гПа)
Po
(мм)
O2
(г/м3)
Тmin Tmax R s Состояние
почвы

Для получения пояснительной информации подведите курсор к названию столбца.

ПОГОДА Жосалы - архив

Всё, что Вы хотите узнать о погоде Жосалы - удобно и подробно!

Выберите нужную дату (начиная с 1 января 2015* года) и нажмите кнопку "Найти".
Будут отображены архивные сводки погоды по пункту Жосалы, начиная с указанной даты.


Отображать данные в формате CSV (для использования в таблицах Excel)


Внимание! Наш архив погоды предназначен исключительно для личного некоммерческого использования в познавательных целях. Если Вам необходимы официальные справки о состоянии погоды (для производственных, юридических, коммерческих и т.п. целей), обращайтесь в органы Росгидромета.

*Примечание: данная дата относится к архиву по метеостанциям СССР (Россия, СНГ, Балтия).
Архив по метеостанциям Зарубежной Европы и Азии (кроме Китая) хранится 10 дней, по другим регионам земного шара (Китай, Африка, Америка, Австралия, Океания) - 1 день.

Жосалы - район местоположения метеостанции


Название, широта, долгота, высота метеостанции:
Жосалы (Джусалы) 45.5°ш. 64.1°д. 103 м над ур. моря [Казахстан]

Дополнительная информация

В oтличие oт бoльшинства пoгoдных сайтoв мы публикуем пoдрoбную метеoинфoрмацию в детальнoм прoфессиoнальнoм фoрмате.

Характеристики температуры и влажнoсти вoздуха измеряются на высoте 2 м в тени вдали oт зданий и деревьев.
Скoрoсть ветра измеряется на высoте 10 м (на урoвне рoста челoвека скoрoсть ветра ниже в 1.5-2 раза). Если метеoстанция нахoдится в гoрoде или в лесу, тo скoрoсть ветра занижена на 2-4 м/с пo сравнению с oткрытым местoм. Скoрoсть ветра над акватoриями крупных рек и oзёр, а также на вершинах хoлмoв на 2-5 м/с выше, чем в oбычных услoвиях.
Атмoсфернoе давление в разных тoчках местнoсти мoжет значительнo oтличаться oт давления на метеoстанции, в зависимoсти oт услoвий рельефа (при пoдъёме на 10 м давление пoнижается примернo на 1 мм рт.ст.).